RH
31 21 20 20 23 26 30 35 43 51 59 63 66 83 96 94 88 86 52 34 26 20 18 28 41 59 76 85 81 82 88 88 87
42 27 24 23 25 28 30 34 39 45 49 60 68 80 94 89 92 87 43 31 31 24 20 16 14 21 53 74 84 84 83 89 86
56 39 27 26 26 28 30 32 34 36 37 49 61 69 89 89 81 62 45 37 34 32 27 22 18 14 22 31 44 54 64 68 69
63 43 34 28 25 27 30 31 34 35 36 37 41 45 69 70 64 71 50 42 39 38 34 30 25 20 17 14 14 16 21 26 22
40 40 36 35 33 28 27 30 33 33 36 36 38 42 65 73 78 73 58 46 45 44 42 41 36 31 25 20 16 14 12 13 13
37 36 38 38 38 39 38 33 29 31 34 37 38 42 62 84 86 79 64 46 45 46 46 46 46 44 38 31 25 20 16 14 12
34 41 36 38 39 39 38 37 37 35 38 41 47 54 65 74 83 78 62 51 45 45 48 48 47 48 48 46 41 31 24 18 14
46 31 27 26 29 34 41 43 48 47 44 63 44 63 48 46 76 73 63 57 48 47 47 49 50 50 48 48 50 50 41 29 21
44 40 41 31 33 42 55 47 72 72 50 52 49 54 50 46 63 66 59 58 52 53 58 60 57 57 58 55 52 50 52 51 37
64 66 66 55 52 55 52 59 60 69 69 71 64 58 60 67 71 70 65 64 62 63 66 68 70 69 69 74 73 66 57 53 54
70 67 62 63 50 50 62 73 83 76 76 74 71 70 72 73 76 74 71 71 68 70 73 75 77 80 89 87 84 82 76 74 69
54 59 80 70 68 66 73 74 78 76 73 72 74 79 79 78 77 79 87 80 75 77 76 82 87 90 90 89 92 87 82 84 78
66 70 75 82 87 80 77 78 82 82 82 85 86 90 90 81 78 85 90 94 94 92 91 86 88 93 92 92 89 90 84 82 83
76 77 79 83 88 89 88 87 92 96 96 91 91 96 90 84 86 88 94 94 95 92 85 88 83 87 95 94 88 89 89 92 94
92 88 93 98 99 99 97 98 97 93 94 96 91 93 92 88 84 85 76 81 81 73 82 85 82 87 86 82 82 84 88 90 93
98 95 99 98 97 99 99 97 98 96 97 99 94 89 87 85 86 80 86 82 76 78 80 75 82 86 86 88 87 85 87 85 87
100 100 100 97 98 98 98 99 96 98 98 97 97 85 77 72 70 70 88 82 84 81 79 81 86 85 86 87 84 86 89 86 80
89 91 99 97 99 98 99 100 98 98 93 97 93 94 82 76 73 77 80 83 84 81 87 92 91 91 81 66 72 81 81 80 84
65 62 53 49 51 51 54 62 68 94 95 80 86 94 97 86 87 78 79 79 83 78 94 85 87 87 86 72 74 68 57 64 68
33 34 34 35 36 39 40 42 43 44 50 79 90 88 89 88 86 85 76 72 75 81 87 80 84 86 87 79 78 73 62 60 65
Wind_Speed
16 16 16 16 16 16 16 15 15 14 14 14 16 18 16 14 10 5 10 12 12 11 9 9 8 9 11 10 10 9 8 6 7
14 14 14 14 14 14 14 14 14 14 13 14 15 16 15 13 7 6 10 10 11 11 11 10 8 5 5 6 6 5 5 6 7
10 11 11 12 11 11 11 11 11 11 11 11 12 12 13 8 1 5 8 9 10 11 11 10 9 7 4 3 2 3 5 7 9
8 9 9 9 9 9 8 7 7 7 7 7 7 6 7 3 5 5 7 8 9 9 9 9 9 8 6 5 5 6 7 9 11
7 8 7 6 6 5 4 4 4 4 4 4 3 4 4 5 6 6 7 8 8 8 8 8 8 8 7 7 6 6 7 9 10
5 5 4 2 2 2 1 1 1 1 1 2 3 2 2 3 5 9 8 9 8 8 8 8 8 8 8 8 8 8 8 9 9
4 2 2 2 2 2 2 2 2 2 2 2 3 2 3 3 5 10 10 10 10 9 8 8 8 8 8 8 8 8 8 8 9
6 4 3 4 4 4 3 3 3 3 4 7 6 6 7 5 4 11 12 12 11 11 11 10 10 9 9 8 8 8 8 8 7
5 3 3 3 2 4 6 7 6 9 8 6 7 7 9 7 6 12 12 12 12 12 12 13 11 11 10 10 10 10 9 8 8
6 5 6 4 4 6 6 6 5 7 7 8 10 9 8 8 9 12 13 13 12 12 13 13 14 13 13 12 12 12 10 9 9
9 8 7 7 6 6 5 5 6 6 8 8 9 10 11 10 11 13 15 16 14 13 14 14 14 15 14 16 16 16 15 11 11
9 7 6 5 6 6 7 8 9 10 9 10 10 10 11 12 15 16 17 19 18 17 15 15 15 15 16 15 16 17 16 18 16
7 7 7 6 7 9 9 9 10 11 11 11 11 11 16 18 17 16 17 17 21 22 20 18 19 17 18 18 16 16 19 19 18
7 7 7 8 9 11 11 11 11 12 12 14 14 16 21 19 18 19 17 18 18 19 20 19 21 18 16 17 19 19 18 20 21
11 10 9 10 11 12 12 13 13 15 16 18 19 20 21 22 18 18 18 16 16 19 19 21 17 14 14 15 16 17 19 20 20
14 14 11 13 14 14 13 15 16 19 20 21 22 20 19 18 17 18 16 9 13 15 21 18 16 15 15 16 17 17 17 19 21
16 15 16 17 18 18 18 19 20 20 18 18 18 19 20 18 13 15 15 12 15 16 18 16 14 15 15 17 19 19 18 18 19
18 18 19 20 21 22 22 22 22 23 22 19 20 10 7 8 11 10 10 11 13 14 15 11 7 14 18 17 17 17 18 18 18
18 19 20 21 21 22 23 22 22 20 21 21 23 25 23 21 15 14 13 12 15 16 10 15 13 17 22 21 21 19 18 18 19
19 20 21 22 22 23 23 22 22 21 22 21 20 20 20 21 22 21 21 18 15 13 14 19 21 22 22 24 20 19 19 19 17
Wind_Direction
89 93 96 97 96 94 92 91 90 89 91 96 105 96 90 75 55 37 39 42 44 47 46 44 46 47 59 61 54 56 48 28 29
92 92 97 102 102 100 97 92 91 94 94 98 109 104 91 76 43 33 30 44 45 44 45 41 40 45 59 62 64 39 20 346 343
105 99 99 101 101 98 95 93 93 94 96 102 109 103 104 105 173 4 32 31 37 38 38 36 34 33 26 354 333 328 322 321 323
119 109 102 101 101 98 96 93 89 87 89 95 103 102 109 95 91 335 9 10 20 25 27 28 28 26 20 358 334 316 308 308 314
134 133 122 109 98 97 95 89 85 81 78 74 74 84 81 30 19 328 342 350 0 6 11 14 16 12 8 2 355 344 332 324 324
137 135 138 130 119 98 85 66 21 23 44 46 22 27 51 61 287 294 315 331 339 341 347 353 356 357 357 355 351 347 345 341 340
156 164 199 241 270 297 313 308 305 308 289 342 339 348 329 283 269 286 303 312 320 325 326 331 336 339 343 345 344 342 341 341 337
245 240 247 259 273 286 293 324 333 294 329 285 305 305 289 280 259 288 300 305 310 315 318 319 320 325 328 326 330 334 337 334 333
211 262 265 277 301 314 318 321 332 310 303 306 296 278 293 292 264 279 294 302 306 308 313 317 319 318 316 319 320 323 327 330 330
200 219 241 257 248 245 251 275 261 291 305 290 294 300 294 297 295 291 296 300 303 305 307 311 315 316 312 311 314 317 316 323 328
217 221 227 247 252 249 257 260 284 275 273 289 286 285 290 296 296 295 296 299 301 301 303 304 304 305 304 308 311 316 321 332 330
224 217 241 251 258 260 260 265 261 270 275 281 288 298 294 286 285 287 292 300 303 305 301 298 297 294 292 292 290 302 315 320 325
223 225 233 243 265 270 267 270 278 283 289 293 293 279 280 292 296 295 290 295 299 305 310 308 299 294 291 287 287 285 298 305 304
238 245 254 258 257 265 275 276 275 277 277 278 279 278 286 290 286 285 281 283 283 294 290 302 305 300 293 286 284 281 284 288 287
259 253 253 249 254 263 265 265 269 274 275 275 273 277 281 292 289 290 295 282 281 285 283 300 302 302 301 299 293 285 274 270 276
249 257 246 256 251 252 259 265 267 266 272 279 286 294 292 293 285 292 289 293 272 273 272 291 296 294 294 293 294 290 284 272 266
239 246 251 247 254 258 263 268 272 273 271 279 283 293 292 300 284 270 244 252 259 277 298 304 299 297 295 287 288 292 290 283 279
254 259 262 262 263 266 267 269 270 273 274 270 272 281 265 283 304 254 268 267 277 299 307 315 313 294 301 309 302 299 293 287 279
261 266 270 274 275 275 276 274 273 270 272 273 263 264 268 279 285 273 271 280 289 304 272 285 283 285 298 305 303 302 303 298 291
271 273 275 277 278 278 279 278 278 276 271 266 273 272 267 263 268 280 278 273 274 273 266 284 284 291 295 304 299 297 302 304 300